TimeEST,TemperatureF,Dew PointF,Humidity,Sea Level PressureIn,VisibilityMPH,Wind Direction,Wind SpeedMPH,Gust SpeedMPH,PrecipitationIn,Events,Conditions,WindDirDegrees,DateUTC
12:55 AM,40.8,40.8,100,30.29,10.0,Calm,Calm,-,N/A,,Overcast,0,2013-01-06 05:55:00
1:22 AM,41.0,41.0,100,30.28,10.0,WNW,5.8,-,N/A,,Overcast,290,2013-01-06 06:22:00
1:55 AM,41.2,41.2,100,30.27,10.0,WNW,5.8,-,N/A,,Overcast,300,2013-01-06 06:55:00
2:55 AM,41.4,36.9,84,30.25,10.0,Calm,Calm,-,N/A,,Overcast,0,2013-01-06 07:55:00
3:55 AM,40.8,40.8,100,30.24,10.0,West,5.8,-,N/A,,Overcast,270,2013-01-06 08:55:00
4:55 AM,40.8,40.8,100,30.23,10.0,West,5.8,-,N/A,,Overcast,280,2013-01-06 09:55:00
5:55 AM,40.5,40.5,100,30.22,10.0,WNW,6.9,-,N/A,,Overcast,290,2013-01-06 10:55:00
6:24 AM,41.0,41.0,100,30.22,10.0,WNW,9.2,-,N/A,,Overcast,290,2013-01-06 11:24:00
6:32 AM,41.0,41.0,100,30.22,10.0,WNW,8.1,-,N/A,,Overcast,290,2013-01-06 11:32:00
6:55 AM,40.1,40.1,100,30.23,10.0,West,8.1,-,N/A,,Overcast,280,2013-01-06 11:55:00
6:56 AM,41.0,41.0,100,30.23,10.0,West,6.9,-,N/A,,Overcast,280,2013-01-06 11:56:00
7:14 AM,39.2,39.2,100,30.23,10.0,WNW,5.8,-,N/A,,Overcast,300,2013-01-06 12:14:00
7:29 AM,39.2,39.2,100,30.24,10.0,West,5.8,-,N/A,,Overcast,280,2013-01-06 12:29:00
7:55 AM,39.7,39.7,100,30.25,10.0,West,6.9,-,N/A,,Overcast,280,2013-01-06 12:55:00
8:01 AM,39.2,39.2,100,30.25,10.0,West,5.8,-,N/A,,Overcast,280,2013-01-06 13:01:00
8:55 AM,40.5,40.5,100,30.26,10.0,West,8.1,-,N/A,,Overcast,280,2013-01-06 13:55:00
9:55 AM,41.0,41.0,100,30.27,10.0,West,6.9,-,N/A,,Overcast,270,2013-01-06 14:55:00
10:25 AM,41.0,39.2,93,30.27,10.0,West,5.8,-,N/A,,Overcast,280,2013-01-06 15:25:00
10:47 AM,42.8,41.0,93,30.26,10.0,NW,5.8,-,N/A,,Overcast,320,2013-01-06 15:47:00
10:55 AM,44.2,44.2,100,30.26,10.0,West,6.9,-,N/A,,Overcast,280,2013-01-06 15:55:00
11:31 AM,44.6,41.0,87,30.25,10.0,WNW,5.8,-,N/A,,Overcast,290,2013-01-06 16:31:00
11:55 AM,45.9,39.2,78,30.25,10.0,West,9.2,-,N/A,,Overcast,280,2013-01-06 16:55:00
12:51 PM,46.4,37.4,71,30.21,10.0,WNW,11.5,-,N/A,,Overcast,290,2013-01-06 17:51:00
12:55 PM,45.7,40.5,82,30.21,10.0,WNW,11.5,-,N/A,,Overcast,300,2013-01-06 17:55:00
1:28 PM,46.4,37.4,71,30.20,10.0,WNW,13.8,-,N/A,,Overcast,300,2013-01-06 18:28:00
1:55 PM,47.1,37.6,69,30.19,10.0,West,12.7,-,N/A,,Overcast,270,2013-01-06 18:55:00
2:12 PM,48.2,37.4,66,30.19,10.0,NW,8.1,-,N/A,,Overcast,310,2013-01-06 19:12:00
2:39 PM,48.2,37.4,66,30.17,10.0,West,11.5,-,N/A,,Overcast,270,2013-01-06 19:39:00
2:55 PM,47.5,37.2,68,30.17,10.0,NW,10.4,-,N/A,,Overcast,320,2013-01-06 19:55:00
3:55 PM,46.8,36.1,67,30.19,10.0,WNW,9.2,-,N/A,,Overcast,300,2013-01-06 20:55:00
4:55 PM,45.0,35.4,69,30.20,10.0,WNW,10.4,-,N/A,,Mostly Cloudy,290,2013-01-06 21:55:00
5:55 PM,42.8,35.1,74,30.19,10.0,West,8.1,-,N/A,,Mostly Cloudy,270,2013-01-06 22:55:00
6:55 PM,40.1,38.3,93,30.21,10.0,West,5.8,-,N/A,,Scattered Clouds,280,2013-01-06 23:55:00
7:55 PM,37.6,37.6,100,30.23,10.0,West,6.9,-,N/A,,Scattered Clouds,270,2013-01-07 00:55:00
8:55 PM,39.6,39.6,100,30.25,10.0,West,8.1,-,N/A,,Scattered Clouds,280,2013-01-07 01:55:00
9:55 PM,40.6,40.6,100,30.26,10.0,WNW,11.5,-,N/A,,Scattered Clouds,290,2013-01-07 02:55:00
10:55 PM,39.9,39.9,100,30.28,10.0,WNW,10.4,-,N/A,,Clear,290,2013-01-07 03:55:00
11:55 PM,40.3,40.3,100,30.28,10.0,NW,8.1,-,N/A,,Clear,310,2013-01-07 04:55:00